| time (UTC) | temp F | wind direction | speed knots | gust knots | rain 1hr in | rain 24hr in | rain mn in | humidity % | barometer mb |
| 20260905193507 | 65 | 112 | 1.7 | 5.2 | 0.00 | 0.34 | 0.00 | 81 | 1015.5 |
| 20260905193006 | 65 | 125 | 1.7 | 6.1 | 0.00 | 0.34 | 0.00 | 82 | 1015.5 |
| 20260905192506 | 65 | 305 | 1.7 | 7.0 | 0.00 | 0.34 | 0.00 | 82 | 1015.5 |
| 20260905192007 | 65 | 1 | 1.7 | 7.0 | 0.00 | 0.34 | 0.00 | 82 | 1015.5 |
| 20260905191507 | 64 | 165 | 0.9 | 6.1 | 0.00 | 0.34 | 0.00 | 83 | 1015.5 |
| 20260905191007 | 64 | 49 | 0.9 | 5.2 | 0.00 | 0.34 | 0.00 | 84 | 1016.5 |
| 20260905190506 | 64 | 150 | 0.9 | 6.1 | 0.00 | 0.34 | 0.00 | 85 | 1016.5 |
| 20260905190006 | 64 | 73 | 2.6 | 6.1 | 0.00 | 0.34 | 0.00 | 85 | 1016.5 |
| 20260905185506 | 64 | 245 | 1.7 | 5.2 | 0.00 | 0.34 | 0.00 | 86 | 1016.5 |
| 20260905184506 | 62 | 133 | 0.9 | 5.2 | 0.00 | 0.34 | 0.00 | 88 | 1016.5 |
| 20260905184006 | 62 | 305 | 0.0 | 4.3 | 0.00 | 0.34 | 0.00 | 88 | 1016.5 |
| 20260905183506 | 62 | 44 | 0.9 | 4.3 | 0.00 | 0.34 | 0.00 | 88 | 1016.5 |
| 20260905183006 | 62 | 60 | 0.0 | 0.0 | 0.00 | 0.34 | 0.00 | 89 | 1016.5 |
| 20260905182506 | 62 | 54 | 0.0 | 0.0 | 0.00 | 0.34 | 0.00 | 89 | 1016.5 |
| 20260905182007 | 62 | 110 | 0.0 | 5.2 | 0.00 | 0.34 | 0.00 | 89 | 1016.5 |
| 20260905181506 | 62 | 232 | 0.0 | 5.2 | 0.00 | 0.34 | 0.00 | 90 | 1016.5 |
| 20260905181006 | 62 | 104 | 0.0 | 5.2 | 0.00 | 0.34 | 0.00 | 91 | 1016.5 |
| 20260905180507 | 62 | 189 | 0.9 | 5.2 | 0.00 | 0.34 | 0.00 | 91 | 1016.5 |
| 20260905180007 | 63 | 35 | 0.0 | 8.7 | 0.00 | 0.34 | 0.00 | 92 | 1016.5 |
| 20260905175507 | 62 | 86 | 0.0 | 8.7 | 0.00 | 0.34 | 0.00 | 93 | 1016.5 |
| 20260905175006 | 62 | 55 | 0.9 | 8.7 | 0.00 | 0.34 | 0.00 | 93 | 1016.5 |
| 20260905174506 | 62 | 126 | 2.6 | 6.1 | 0.00 | 0.34 | 0.00 | 93 | 1016.5 |
| 20260905174006 | 61 | 80 | 1.7 | 5.2 | 0.00 | 0.34 | 0.00 | 94 | 1016.5 |
| 20260905173506 | 60 | 89 | 0.9 | 7.0 | 0.00 | 0.34 | 0.00 | 94 | 1016.5 |
| 20260905173006 | 60 | 64 | 1.7 | 7.0 | 0.00 | 0.34 | 0.00 | 94 | 1016.5 |
| 20260905172506 | 59 | 82 | 0.0 | 4.3 | 0.00 | 0.34 | 0.00 | 95 | 1016.5 |
| 20260905172007 | 59 | 86 | 0.0 | 4.3 | 0.00 | 0.34 | 0.00 | 95 | 1016.5 |
| 20260905171506 | 60 | 84 | 0.0 | 4.3 | 0.00 | 0.34 | 0.00 | 95 | 1016.5 |
| 20260905171006 | 59 | 40 | 0.0 | 4.3 | 0.00 | 0.34 | 0.00 | 96 | 1016.5 |
| 20260905170507 | 59 | 59 | 0.0 | 7.0 | 0.00 | 0.34 | 0.00 | 96 | 1016.5 |
| 20260905165006 | 59 | 58 | 2.6 | 6.1 | 0.00 | 0.34 | 0.00 | 97 | 1016.5 |
| 20260905164506 | 59 | 60 | 0.0 | 4.3 | 0.00 | 0.34 | 0.00 | 98 | 1016.5 |
| 20260905164006 | 58 | 68 | 0.0 | 4.3 | 0.00 | 0.34 | 0.00 | 98 | 1016.5 |
| 20260905163506 | 58 | 35 | 0.0 | 4.3 | 0.00 | 0.34 | 0.00 | 98 | 1016.5 |
| 20260905163008 | 58 | 68 | 0.9 | 4.3 | 0.00 | 0.34 | 0.00 | 98 | 1016.5 |
| 20260905162506 | 58 | 78 | 0.0 | 1.7 | 0.00 | 0.34 | 0.00 | 98 | 1016.5 |
| 20260905162006 | 57 | 52 | 0.0 | 0.0 | 0.00 | 0.34 | 0.00 | 98 | 1016.5 |
| 20260905161507 | 57 | 35 | 0.0 | 0.0 | 0.00 | 0.34 | 0.00 | 98 | 1016.5 |
| 20260905161006 | 57 | 39 | 0.0 | 0.0 | 0.00 | 0.34 | 0.00 | 98 | 1016.5 |
| 20260905160506 | 56 | 80 | 0.0 | 0.0 | 0.00 | 0.34 | 0.00 | 98 | 1016.5 |
| 20260905160007 | 56 | 99 | 0.0 | 0.0 | 0.00 | 0.34 | 0.00 | 98 | 1016.5 |
| 20260905155506 | 55 | 80 | 0.0 | 0.0 | 0.00 | 0.34 | 0.00 | 98 | 1016.5 |
| 20260905155006 | 55 | 91 | 0.0 | 0.0 | 0.00 | 0.34 | 0.00 | 98 | 1016.5 |
| 20260905154006 | 55 | 80 | 0.0 | 0.0 | 0.00 | 0.34 | 0.00 | 98 | 1016.5 |
| 20260905153506 | 55 | 86 | 0.0 | 0.0 | 0.00 | 0.34 | 0.00 | 98 | 1016.5 |
| 20260905153006 | 55 | 95 | 0.0 | 0.0 | 0.00 | 0.34 | 0.00 | 98 | 1016.5 |
| 20260905152506 | 55 | 80 | 0.0 | 0.0 | 0.00 | 0.34 | 0.00 | 98 | 1016.5 |
| 20260905152006 | 55 | 113 | 0.0 | 0.0 | 0.00 | 0.34 | 0.00 | 98 | 1016.5 |
| 20260905151505 | 54 | 282 | 0.0 | 0.0 | 0.00 | 0.34 | 0.00 | 98 | 1016.5 |
| 20260905151006 | 53 | 282 | 0.0 | 0.0 | 0.00 | 0.34 | 0.00 | 98 | 1016.5 |
| 20260905150506 | 53 | 282 | 0.0 | 0.0 | 0.00 | 0.34 | 0.00 | 98 | 1016.5 |
| 20260905150006 | 53 | 282 | 0.0 | 0.0 | 0.00 | 0.34 | 0.00 | 98 | 1016.5 |
| 20260905145508 | 53 | 282 | 0.0 | 0.0 | 0.00 | 0.34 | 0.00 | 98 | 1016.5 |
| 20260905145006 | 53 | 282 | 0.0 | 0.0 | 0.00 | 0.34 | 0.00 | 98 | 1016.5 |
| 20260905144506 | 53 | 282 | 0.0 | 0.0 | 0.00 | 0.34 | 0.00 | 98 | 1016.5 |
| 20260905144006 | 53 | 282 | 0.0 | 0.0 | 0.00 | 0.34 | 0.00 | 98 | 1016.5 |
| 20260905143506 | 53 | 282 | 0.0 | 0.0 | 0.00 | 0.34 | 0.00 | 98 | 1016.5 |
| 20260905142505 | 52 | 282 | 0.0 | 0.0 | 0.00 | 0.34 | 0.00 | 98 | 1016.5 |
| 20260905142006 | 52 | 282 | 0.0 | 0.0 | 0.00 | 0.34 | 0.00 | 98 | 1016.5 |
| 20260905141006 | 52 | 282 | 0.0 | 0.0 | 0.00 | 0.34 | 0.00 | 98 | 1016.5 |
| 20260905140506 | 52 | 282 | 0.0 | 0.0 | 0.00 | 0.34 | 0.00 | 98 | 1016.5 |
| 20260905140006 | 52 | 282 | 0.0 | 0.0 | 0.00 | 0.34 | 0.00 | 98 | 1016.5 |
| 20260905135506 | 52 | 282 | 0.0 | 0.0 | 0.00 | 0.34 | 0.00 | 98 | 1015.5 |
| 20260905135006 | 52 | 282 | 0.0 | 0.0 | 0.00 | 0.34 | 0.00 | 98 | 1015.5 |
| 20260905134006 | 52 | 282 | 0.0 | 0.0 | 0.00 | 0.34 | 0.00 | 98 | 1015.5 |
| 20260905133506 | 52 | 282 | 0.0 | 0.0 | 0.00 | 0.34 | 0.00 | 98 | 1015.5 |
| 20260905133007 | 53 | 282 | 0.0 | 0.0 | 0.00 | 0.34 | 0.00 | 98 | 1015.5 |
| 20260905132006 | 53 | 282 | 0.0 | 0.0 | 0.00 | 0.34 | 0.00 | 98 | 1015.5 |
| 20260905131505 | 53 | 282 | 0.0 | 0.0 | 0.00 | 0.34 | 0.00 | 98 | 1015.5 |
| 20260905131006 | 53 | 282 | 0.0 | 0.0 | 0.00 | 0.34 | 0.00 | 98 | 1015.5 |
| 20260905130006 | 53 | 282 | 0.0 | 0.0 | 0.00 | 0.34 | 0.00 | 98 | 1015.5 |
| 20260905125505 | 53 | 282 | 0.0 | 0.0 | 0.00 | 0.34 | 0.00 | 98 | 1015.5 |
| 20260905124505 | 53 | 282 | 0.0 | 0.0 | 0.00 | 0.34 | 0.00 | 98 | 1015.5 |
| 20260905123506 | 53 | 282 | 0.0 | 0.0 | 0.00 | 0.34 | 0.00 | 98 | 1015.5 |
| 20260905123006 | 53 | 282 | 0.0 | 0.0 | 0.00 | 0.34 | 0.00 | 98 | 1015.5 |
| 20260905122507 | 53 | 282 | 0.0 | 0.0 | 0.00 | 0.34 | 0.00 | 98 | 1014.5 |
| 20260905122006 | 53 | 282 | 0.0 | 0.0 | 0.00 | 0.34 | 0.00 | 98 | 1014.5 |
| 20260905121506 | 53 | 282 | 0.0 | 0.0 | 0.00 | 0.34 | 0.00 | 98 | 1014.5 |
| 20260905121006 | 53 | 282 | 0.0 | 0.0 | 0.00 | 0.34 | 0.00 | 98 | 1015.5 |
| 20260905120505 | 53 | 282 | 0.0 | 0.0 | 0.00 | 0.34 | 0.00 | 98 | 1015.5 |
| 20260905120005 | 53 | 282 | 0.0 | 0.0 | 0.00 | 0.34 | 0.00 | 98 | 1015.5 |
| 20260905115006 | 53 | 282 | 0.0 | 0.0 | 0.00 | 0.34 | 0.00 | 98 | 1015.5 |
| 20260905114506 | 53 | 282 | 0.0 | 0.0 | 0.00 | 0.34 | 0.00 | 98 | 1015.5 |
| 20260905114006 | 53 | 282 | 0.0 | 0.0 | 0.00 | 0.34 | 0.00 | 98 | 1015.5 |
| 20260905113505 | 53 | 282 | 0.0 | 0.0 | 0.00 | 0.34 | 0.00 | 98 | 1015.5 |
| 20260905113006 | 53 | 282 | 0.0 | 0.0 | 0.00 | 0.34 | 0.00 | 98 | 1015.5 |
| 20260905112506 | 53 | 282 | 0.0 | 0.0 | 0.00 | 0.34 | 0.00 | 98 | 1015.5 |
| 20260905112005 | 53 | 282 | 0.0 | 0.0 | 0.00 | 0.34 | 0.00 | 98 | 1015.5 |
| 20260905110506 | 53 | 282 | 0.0 | 0.0 | 0.00 | 0.34 | 0.00 | 98 | 1014.5 |
| 20260905110006 | 53 | 282 | 0.0 | 0.0 | 0.00 | 0.34 | 0.00 | 98 | 1014.5 |
| 20260905105506 | 53 | 282 | 0.0 | 0.0 | 0.00 | 0.34 | 0.00 | 98 | 1014.5 |
| 20260905105006 | 53 | 282 | 0.0 | 0.0 | 0.00 | 0.34 | 0.00 | 98 | 1014.5 |
| 20260905104506 | 53 | 282 | 0.0 | 0.0 | 0.00 | 0.39 | 0.00 | 98 | 1014.5 |
| 20260905104006 | 53 | 282 | 0.0 | 0.0 | 0.00 | 0.39 | 0.00 | 98 | 1015.5 |
| 20260905103505 | 53 | 282 | 0.0 | 0.0 | 0.00 | 0.39 | 0.00 | 98 | 1015.5 |
| 20260905103005 | 53 | 282 | 0.0 | 0.0 | 0.00 | 0.39 | 0.00 | 98 | 1015.5 |
| 20260905102006 | 53 | 282 | 0.0 | 0.0 | 0.00 | 0.39 | 0.00 | 98 | 1015.5 |
| 20260905101005 | 53 | 282 | 0.0 | 0.0 | 0.00 | 0.39 | 0.00 | 98 | 1015.5 |
| 20260905100005 | 53 | 282 | 0.0 | 0.0 | 0.00 | 0.39 | 0.00 | 98 | 1015.5 |
| 20260905095505 | 54 | 282 | 0.0 | 0.0 | 0.00 | 0.39 | 0.00 | 98 | 1015.5 |
| 20260905094505 | 54 | 282 | 0.0 | 0.0 | 0.00 | 0.39 | 0.00 | 98 | 1015.5 |
| 20260905094006 | 54 | 282 | 0.0 | 0.0 | 0.00 | 0.39 | 0.00 | 98 | 1014.5 |
| 20260905093505 | 54 | 282 | 0.0 | 0.0 | 0.00 | 0.39 | 0.00 | 98 | 1014.5 |
| 20260905093005 | 54 | 282 | 0.0 | 0.0 | 0.00 | 0.39 | 0.00 | 98 | 1014.5 |
| 20260905092505 | 54 | 282 | 0.0 | 0.0 | 0.00 | 0.39 | 0.00 | 98 | 1014.5 |
| 20260905092005 | 54 | 282 | 0.0 | 0.0 | 0.00 | 0.39 | 0.00 | 98 | 1014.5 |
| 20260905090505 | 54 | 282 | 0.0 | 0.0 | 0.00 | 0.39 | 0.00 | 98 | 1015.5 |
| 20260905090005 | 54 | 305 | 0.0 | 0.0 | 0.00 | 0.39 | 0.00 | 98 | 1015.5 |
| 20260905085505 | 54 | 305 | 0.0 | 0.0 | 0.00 | 0.39 | 0.00 | 98 | 1014.5 |
| 20260905084505 | 54 | 305 | 0.0 | 0.0 | 0.00 | 0.39 | 0.00 | 98 | 1014.5 |
| 20260905083505 | 54 | 305 | 0.0 | 0.0 | 0.00 | 0.39 | 0.00 | 98 | 1014.5 |
| 20260905083007 | 54 | 305 | 0.0 | 0.0 | 0.00 | 0.39 | 0.00 | 98 | 1014.5 |
| 20260905082005 | 54 | 305 | 0.0 | 0.0 | 0.00 | 0.39 | 0.00 | 98 | 1014.5 |
| 20260905081506 | 54 | 305 | 0.0 | 0.0 | 0.00 | 0.39 | 0.00 | 98 | 1014.5 |
| 20260905080505 | 54 | 305 | 0.0 | 0.0 | 0.00 | 0.39 | 0.00 | 98 | 1014.5 |
| 20260905080005 | 54 | 305 | 0.0 | 0.0 | 0.00 | 0.39 | 0.00 | 98 | 1014.5 |
| 20260905075505 | 54 | 305 | 0.0 | 0.0 | 0.00 | 0.39 | 0.00 | 98 | 1014.5 |
| 20260905075005 | 54 | 305 | 0.0 | 0.0 | 0.00 | 0.39 | 0.00 | 98 | 1014.5 |
| 20260905074505 | 54 | 305 | 0.0 | 0.0 | 0.00 | 0.39 | 0.00 | 98 | 1014.5 |
| 20260905074005 | 54 | 305 | 0.0 | 0.0 | 0.00 | 0.39 | 0.00 | 98 | 1014.5 |
| 20260905073505 | 54 | 305 | 0.0 | 0.0 | 0.00 | 0.39 | 0.00 | 98 | 1014.5 |
| 20260905073005 | 54 | 58 | 0.0 | 0.0 | 0.00 | 0.39 | 0.00 | 98 | 1014.5 |
| 20260905072005 | 54 | 58 | 0.0 | 0.0 | 0.00 | 0.39 | 0.00 | 98 | 1014.5 |
| 20260905071506 | 54 | 58 | 0.0 | 0.0 | 0.00 | 0.39 | 0.00 | 98 | 1014.5 |
| 20260905071005 | 54 | 58 | 0.0 | 0.0 | 0.00 | 0.39 | 0.00 | 98 | 1014.5 |
| 20260905070505 | 54 | 58 | 0.0 | 0.0 | 0.00 | 0.39 | 0.00 | 98 | 1014.5 |
| 20260905070005 | 54 | 58 | 0.0 | 0.0 | 0.00 | 0.39 | 0.00 | 98 | 1014.5 |
| 20260905065004 | 54 | 58 | 0.0 | 0.0 | 0.00 | 0.39 | 0.39 | 98 | 1014.5 |
| 20260905064505 | 55 | 58 | 0.0 | 0.0 | 0.00 | 0.39 | 0.39 | 98 | 1014.5 |
| 20260905064005 | 55 | 58 | 0.0 | 0.0 | 0.00 | 0.39 | 0.39 | 98 | 1014.5 |
| 20260905063505 | 55 | 46 | 0.0 | 0.0 | 0.00 | 0.39 | 0.39 | 98 | 1014.5 |
| 20260905063005 | 54 | 282 | 0.0 | 0.0 | 0.00 | 0.39 | 0.39 | 98 | 1014.5 |
| 20260905062505 | 54 | 305 | 0.0 | 0.0 | 0.00 | 0.39 | 0.39 | 98 | 1014.5 |
| 20260905062005 | 54 | 260 | 0.0 | 0.0 | 0.00 | 0.39 | 0.39 | 98 | 1014.5 |
| 20260905061504 | 54 | 260 | 0.0 | 0.0 | 0.00 | 0.39 | 0.39 | 98 | 1014.5 |
| 20260905061005 | 54 | 260 | 0.0 | 0.0 | 0.00 | 0.39 | 0.39 | 98 | 1014.5 |
| 20260905060505 | 55 | 260 | 0.0 | 0.0 | 0.00 | 0.39 | 0.39 | 98 | 1014.5 |
| 20260905060005 | 55 | 260 | 0.0 | 0.0 | 0.00 | 0.39 | 0.39 | 98 | 1014.5 |
| 20260905055505 | 55 | 260 | 0.0 | 0.0 | 0.00 | 0.39 | 0.39 | 98 | 1014.5 |
| 20260905055005 | 55 | 260 | 0.0 | 0.0 | 0.00 | 0.39 | 0.39 | 98 | 1014.5 |
| 20260905054505 | 55 | 260 | 0.0 | 0.0 | 0.00 | 0.39 | 0.39 | 98 | 1014.5 |
| 20260905054004 | 55 | 260 | 0.0 | 0.0 | 0.00 | 0.39 | 0.39 | 98 | 1014.5 |
| 20260905053505 | 55 | 260 | 0.0 | 0.0 | 0.00 | 0.39 | 0.39 | 98 | 1014.5 |
| 20260905053005 | 55 | 260 | 0.0 | 0.0 | 0.00 | 0.39 | 0.39 | 98 | 1014.5 |
| 20260905052505 | 55 | 260 | 0.0 | 0.0 | 0.00 | 0.39 | 0.39 | 98 | 1014.5 |
| 20260905052005 | 55 | 260 | 0.0 | 0.0 | 0.00 | 0.39 | 0.39 | 98 | 1014.5 |
| 20260905051505 | 55 | 260 | 0.0 | 0.0 | 0.00 | 0.39 | 0.39 | 98 | 1014.5 |
| 20260905051004 | 55 | 260 | 0.0 | 0.0 | 0.00 | 0.39 | 0.39 | 97 | 1014.5 |
| 20260905050505 | 55 | 260 | 0.0 | 0.0 | 0.00 | 0.39 | 0.39 | 97 | 1014.5 |
| 20260905050004 | 54 | 260 | 0.0 | 0.0 | 0.00 | 0.39 | 0.39 | 97 | 1014.5 |
| 20260905045505 | 54 | 260 | 0.0 | 0.0 | 0.00 | 0.39 | 0.39 | 97 | 1014.5 |
| 20260905044505 | 54 | 282 | 0.0 | 0.0 | 0.00 | 0.39 | 0.39 | 97 | 1014.5 |
| 20260905043504 | 54 | 282 | 0.0 | 0.0 | 0.00 | 0.39 | 0.39 | 97 | 1014.5 |
| 20260905042505 | 54 | 282 | 0.0 | 0.0 | 0.00 | 0.39 | 0.39 | 97 | 1014.5 |
| 20260905042004 | 54 | 282 | 0.0 | 0.0 | 0.00 | 0.39 | 0.39 | 97 | 1014.5 |
| 20260905041505 | 54 | 282 | 0.0 | 0.0 | 0.00 | 0.39 | 0.39 | 96 | 1014.5 |
| 20260905041005 | 54 | 282 | 0.0 | 0.0 | 0.00 | 0.39 | 0.39 | 96 | 1014.5 |
| 20260905040505 | 54 | 282 | 0.0 | 0.0 | 0.00 | 0.39 | 0.39 | 96 | 1014.5 |
| 20260905035504 | 54 | 305 | 0.0 | 0.0 | 0.00 | 0.39 | 0.39 | 96 | 1014.5 |
| 20260905035005 | 54 | 305 | 0.0 | 0.0 | 0.00 | 0.39 | 0.39 | 96 | 1014.5 |
| 20260905034504 | 55 | 283 | 0.0 | 0.0 | 0.00 | 0.39 | 0.39 | 96 | 1014.5 |
| 20260905033505 | 55 | 305 | 0.0 | 0.0 | 0.00 | 0.39 | 0.39 | 96 | 1014.5 |
| 20260905033005 | 55 | 260 | 0.0 | 0.0 | 0.00 | 0.39 | 0.39 | 96 | 1014.5 |
| 20260905032504 | 55 | 305 | 0.0 | 0.0 | 0.00 | 0.39 | 0.39 | 96 | 1014.5 |
| 20260905031504 | 55 | 305 | 0.0 | 0.0 | 0.00 | 0.39 | 0.39 | 95 | 1014.5 |
| 20260905031004 | 55 | 305 | 0.0 | 0.0 | 0.00 | 0.39 | 0.39 | 95 | 1013.5 |
| 20260905030504 | 55 | 305 | 0.0 | 0.0 | 0.00 | 0.39 | 0.39 | 95 | 1013.5 |
| 20260905030005 | 55 | 305 | 0.0 | 0.0 | 0.00 | 0.39 | 0.39 | 95 | 1013.5 |
| 20260905025005 | 55 | 305 | 0.0 | 0.0 | 0.00 | 0.39 | 0.39 | 95 | 1013.5 |
| 20260905023505 | 56 | 305 | 0.0 | 0.0 | 0.00 | 0.39 | 0.39 | 94 | 1013.5 |
| 20260905022504 | 56 | 305 | 0.0 | 0.0 | 0.00 | 0.39 | 0.39 | 94 | 1013.5 |
| 20260905022006 | 56 | 305 | 0.0 | 0.0 | 0.00 | 0.39 | 0.39 | 94 | 1013.5 |
| 20260905021506 | 56 | 305 | 0.0 | 0.0 | 0.00 | 0.39 | 0.39 | 94 | 1013.5 |
| 20260905021004 | 57 | 305 | 0.0 | 0.0 | 0.00 | 0.39 | 0.39 | 94 | 1013.5 |
| 20260905020504 | 57 | 192 | 0.0 | 0.0 | 0.00 | 0.39 | 0.39 | 94 | 1013.5 |
| 20260905020005 | 57 | 205 | 0.0 | 0.0 | 0.00 | 0.39 | 0.39 | 94 | 1013.5 |
| 20260905015504 | 57 | 58 | 0.0 | 0.0 | 0.00 | 0.39 | 0.39 | 94 | 1013.5 |
| 20260905015004 | 57 | 58 | 0.0 | 0.0 | 0.00 | 0.39 | 0.39 | 94 | 1013.5 |
| 20260905014505 | 57 | 58 | 0.0 | 0.0 | 0.00 | 0.39 | 0.39 | 94 | 1013.5 |
| 20260905014005 | 57 | 70 | 0.0 | 0.0 | 0.00 | 0.39 | 0.39 | 94 | 1013.5 |
| 20260905013504 | 57 | 58 | 0.0 | 0.0 | 0.00 | 0.39 | 0.39 | 94 | 1013.5 |
| 20260905013005 | 57 | 58 | 0.0 | 0.0 | 0.00 | 0.39 | 0.39 | 94 | 1013.5 |
| 20260905012504 | 57 | 170 | 0.0 | 0.0 | 0.00 | 0.39 | 0.39 | 93 | 1012.5 |
| 20260905011504 | 58 | 170 | 0.0 | 0.0 | 0.00 | 0.39 | 0.39 | 93 | 1012.5 |
| 20260905011004 | 58 | 170 | 0.0 | 0.0 | 0.00 | 0.39 | 0.39 | 93 | 1012.5 |
| 20260905010504 | 58 | 170 | 0.0 | 0.0 | 0.00 | 0.39 | 0.39 | 93 | 1012.5 |
| 20260905010005 | 58 | 170 | 0.0 | 0.0 | 0.00 | 0.39 | 0.39 | 93 | 1012.5 |
| 20260905005504 | 58 | 80 | 0.0 | 0.0 | 0.00 | 0.39 | 0.39 | 93 | 1012.5 |
| 20260905005004 | 58 | 101 | 0.0 | 0.0 | 0.00 | 0.39 | 0.39 | 93 | 1012.5 |
| 20260905004504 | 58 | 156 | 0.0 | 0.0 | 0.00 | 0.39 | 0.39 | 94 | 1012.5 |
| 20260905004004 | 58 | 148 | 0.0 | 0.0 | 0.00 | 0.39 | 0.39 | 94 | 1012.5 |
| 20260905003004 | 58 | 170 | 0.0 | 0.0 | 0.00 | 0.39 | 0.39 | 93 | 1012.5 |
| 20260905002504 | 58 | 170 | 0.0 | 0.0 | 0.00 | 0.39 | 0.39 | 94 | 1012.5 |
| 20260905002004 | 59 | 142 | 0.0 | 0.0 | 0.00 | 0.39 | 0.39 | 94 | 1012.5 |
| 20260905001505 | 59 | 140 | 0.0 | 0.0 | 0.00 | 0.39 | 0.39 | 94 | 1012.5 |
| 20260905001005 | 59 | 178 | 0.0 | 0.0 | 0.00 | 0.39 | 0.39 | 93 | 1012.5 |
| 20260905000503 | 58 | 148 | 0.0 | 0.0 | 0.00 | 0.39 | 0.39 | 93 | 1012.5 |
| 20260905000005 | 58 | 305 | 0.0 | 0.0 | 0.00 | 0.39 | 0.39 | 93 | 1012.5 |
| 20260904235504 | 58 | 305 | 0.0 | 0.0 | 0.00 | 0.39 | 0.39 | 93 | 1012.5 |
| 20260904235004 | 58 | 305 | 0.0 | 1.7 | 0.00 | 0.39 | 0.39 | 94 | 1012.5 |
| 20260904234004 | 58 | 125 | 0.0 | 0.0 | 0.00 | 0.39 | 0.39 | 93 | 1012.5 |
| 20260904233503 | 58 | 125 | 0.0 | 0.0 | 0.00 | 0.39 | 0.39 | 93 | 1012.5 |
| 20260904233004 | 58 | 92 | 0.0 | 0.0 | 0.06 | 0.39 | 0.39 | 93 | 1012.5 |
| 20260904232004 | 57 | 80 | 0.0 | 0.0 | 0.06 | 0.39 | 0.39 | 93 | 1012.5 |
| 20260904231504 | 57 | 125 | 0.0 | 0.0 | 0.06 | 0.44 | 0.39 | 93 | 1012.5 |
| 20260904231004 | 57 | 102 | 0.0 | 0.0 | 0.06 | 0.44 | 0.39 | 93 | 1012.5 |
| 20260904230504 | 56 | 102 | 0.0 | 0.0 | 0.06 | 0.44 | 0.39 | 92 | 1012.5 |
| 20260904230004 | 56 | 148 | 0.0 | 0.0 | 0.06 | 0.44 | 0.39 | 92 | 1012.5 |
| 20260904225504 | 56 | 92 | 0.0 | 0.0 | 0.06 | 0.44 | 0.39 | 91 | 1012.5 |
| 20260904224504 | 56 | 125 | 0.0 | 0.0 | 0.06 | 0.44 | 0.39 | 90 | 1012.5 |
| 20260904224004 | 55 | 118 | 0.0 | 0.0 | 0.10 | 0.44 | 0.39 | 90 | 1012.5 |
| 20260904223504 | 55 | 80 | 0.0 | 1.7 | 0.10 | 0.44 | 0.39 | 90 | 1012.5 |
| 20260904223004 | 55 | 166 | 0.0 | 1.7 | 0.19 | 0.38 | 0.34 | 90 | 1012.5 |
| 20260904222004 | 56 | 282 | 0.0 | 0.0 | 0.28 | 0.38 | 0.34 | 88 | 1012.5 |
| 20260904221505 | 56 | 282 | 0.0 | 0.0 | 0.28 | 0.38 | 0.34 | 86 | 1012.5 |
| 20260904221003 | 56 | 282 | 0.0 | 0.0 | 0.28 | 0.38 | 0.34 | 85 | 1012.5 |
| 20260904220504 | 56 | 282 | 0.0 | 0.0 | 0.28 | 0.38 | 0.34 | 84 | 1012.5 |
| 20260904220004 | 56 | 282 | 0.0 | 0.0 | 0.28 | 0.38 | 0.34 | 83 | 1012.5 |
| 20260904215504 | 56 | 282 | 0.0 | 0.0 | 0.28 | 0.38 | 0.34 | 82 | 1012.5 |
| 20260904215004 | 57 | 282 | 0.0 | 0.0 | 0.28 | 0.38 | 0.34 | 81 | 1012.5 |
| 20260904214004 | 58 | 35 | 0.0 | 6.1 | 0.23 | 0.34 | 0.29 | 79 | 1011.5 |
| 20260904213504 | 59 | 302 | 0.9 | 8.7 | 0.23 | 0.34 | 0.29 | 77 | 1011.5 |
| 20260904213004 | 59 | 250 | 2.6 | 17.4 | 0.09 | 0.19 | 0.15 | 77 | 1011.5 |
| 20260904212504 | 61 | 244 | 4.3 | 17.4 | 0.04 | 0.14 | 0.10 | 74 | 1012.5 |
| 20260904212004 | 64 | 177 | 1.7 | 17.4 | 0.00 | 0.10 | 0.06 | 67 | 1012.5 |
| 20260904211504 | 65 | 241 | 0.0 | 0.0 | 0.00 | 0.10 | 0.06 | 68 | 1012.5 |
| 20260904211004 | 65 | 215 | 0.0 | 4.3 | 0.00 | 0.10 | 0.06 | 68 | 1011.5 |
| 20260904210503 | 66 | 180 | 0.9 | 4.3 | 0.00 | 0.10 | 0.06 | 68 | 1011.5 |
| 20260904210004 | 66 | 192 | 0.0 | 5.2 | 0.00 | 0.10 | 0.06 | 69 | 1011.5 |
| 20260904205504 | 66 | 305 | 0.0 | 5.2 | 0.00 | 0.10 | 0.06 | 70 | 1011.5 |
| 20260904205004 | 65 | 174 | 0.9 | 5.2 | 0.00 | 0.10 | 0.06 | 67 | 1011.5 |
| 20260904204504 | 64 | 215 | 0.0 | 0.0 | 0.00 | 0.10 | 0.06 | 69 | 1011.5 |
| 20260904204004 | 64 | 341 | 0.0 | 0.0 | 0.00 | 0.10 | 0.06 | 71 | 1011.5 |
| 20260904203504 | 64 | 305 | 0.0 | 0.0 | 0.00 | 0.10 | 0.06 | 70 | 1011.5 |
| 20260904202504 | 64 | 35 | 0.0 | 0.0 | 0.00 | 0.10 | 0.06 | 71 | 1011.5 |
| 20260904202004 | 64 | 35 | 0.0 | 0.0 | 0.00 | 0.10 | 0.06 | 71 | 1011.5 |
| 20260904201507 | 64 | 86 | 0.0 | 7.8 | 0.00 | 0.10 | 0.06 | 72 | 1011.5 |
| 20260904201007 | 64 | 305 | 0.9 | 7.8 | 0.00 | 0.10 | 0.06 | 72 | 1011.5 |
| 20260904200506 | 64 | 274 | 0.9 | 7.8 | 0.00 | 0.10 | 0.06 | 73 | 1011.5 |
| 20260904200006 | 64 | 58 | 0.0 | 1.7 | 0.00 | 0.10 | 0.06 | 71 | 1011.5 |
| 20260904195507 | 64 | 220 | 0.0 | 0.0 | 0.00 | 0.10 | 0.06 | 70 | 1011.5 |
| 20260904195007 | 64 | 300 | 0.0 | 4.3 | 0.00 | 0.10 | 0.06 | 71 | 1011.5 |
| 20260904194507 | 64 | 136 | 0.0 | 4.3 | 0.00 | 0.10 | 0.06 | 71 | 1011.5 |
| 20260904194006 | 64 | 45 | 0.9 | 4.3 | 0.00 | 0.10 | 0.06 | 73 | 1012.5 |